Weather History for KJKL - August, 2013

Change the Weather History Date:

Wednesday, August 7, 2013

  Actual Average Record
Temperature  
Mean Temperature 75 °F 75 °F  
Max Temperature 80 °F 85 °F 92 °F (1999)
Min Temperature 70 °F 66 °F 50 °F (2004)
Degree Days  
Heating Degree Days 0 0  
Month to date heating degree days 0 0  
Since 1 June heating degree days 0 12  
Since 1 July heating degree days 0 0  
Cooling Degree Days 10 10  
Month to date cooling degree days 51 70  
Year to date cooling degree days 696 750  
Since 1 June cooling degree days 548 614  
Growing Degree Days 24 (Base 50)    
Moisture  
Dew Point 70 °F    
Average Humidity 90    
Maximum Humidity 97    
Minimum Humidity 82    
Precipitation  
Precipitation 0.09 in 0.14 in 0.33 in (2011)
Month to date precipitation 0.23 0.98  
Year to date precipitation 33.41 30.84  
Snow  
Snow 0.00 in 0.00 in - ()
Month to date snowfall 0.0 0.0  
Since 1 June snowfall 0.0 0.0  
Since 1 July snowfall 0.0 0.0  
Snow Depth 0.00 in    
Sea Level Pressure  
Sea Level Pressure 29.99 in    
Wind  
Wind Speed 1 mph (SSE)    
Max Wind Speed 6 mph    
Max Gust Speed 12 mph    
Visibility 8 miles    
Events Rain , Thunderstorm    
T = Trace of Precipitation, MM = Missing Value Source: NWS Daily Summary

Daily Weather History Graph

Daily Weather History Graph

Search for Another Location

Airport or City:

Trip Planner

Search our weather history database for the weather conditions in past years. The results will help you decide how hot, cold, wet, or windy it might be!

Date:

Astronomy

Aug. 07, 2013 Rise Set
Actual Time 6:42 AM EDT 8:34 PM EDT
Civil Twilight 6:13 AM EDT 9:03 PM EDT
Nautical Twilight 5:39 AM EDT 9:37 PM EDT
Astronomical Twilight 5:02 AM EDT 10:14 PM EDT
Moon 7:27 AM EDT (8/7) 8:44 PM EDT (8/7)
Length of Visible Light 14h 49m
Length of Day
13h 52m
New Moon, 1% of the Moon is Illuminated
Aug 7
New Moon
Aug 14
First Quarter
Aug 20
Full
Aug 28
Last Quarter
Sep 5
New

Hourly Weather History & Observations

Time (EDT) Temp. Heat Index Dew Point Humidity Pressure Visibility Wind Dir Wind Speed Gust Speed Precip Events Conditions
12:44 AM 73.4 °F - 68.0 °F 83% 30.01 in 10.0 mi Calm Calm - N/A   Mostly Cloudy
12:53 AM 73.0 °F - 68.0 °F 84% 29.96 in 10.0 mi Calm Calm - N/A   Mostly Cloudy
1:08 AM 71.6 °F - 68.0 °F 88% 30.00 in 10.0 mi Calm Calm - N/A   Mostly Cloudy
1:53 AM 72.0 °F - 68.0 °F 87% 29.96 in 10.0 mi Calm Calm - N/A   Clear
2:45 AM 71.6 °F - 69.8 °F 94% 30.01 in 10.0 mi Calm Calm - N/A   Mostly Cloudy
2:53 AM 72.0 °F - 69.1 °F 91% 29.96 in 10.0 mi Calm Calm - N/A   Mostly Cloudy
3:20 AM 71.6 °F - 69.8 °F 94% 30.01 in 10.0 mi Calm Calm - N/A   Overcast
3:34 AM 71.6 °F - 69.8 °F 94% 30.01 in 10.0 mi Calm Calm - N/A   Overcast
3:53 AM 72.0 °F - 69.1 °F 91% 29.96 in 10.0 mi Calm Calm - N/A   Overcast
4:53 AM 72.0 °F - 69.1 °F 91% 29.96 in 10.0 mi Calm Calm - N/A   Overcast
5:28 AM 71.6 °F - 69.8 °F 94% 30.00 in 9.0 mi Calm Calm - N/A   Overcast
5:53 AM 70.0 °F - 68.0 °F 93% 29.95 in 10.0 mi Calm Calm - N/A   Mostly Cloudy
6:24 AM 71.6 °F - 68.0 °F 88% 30.01 in 10.0 mi Calm Calm - N/A   Overcast
6:49 AM 71.6 °F - 68.0 °F 88% 30.01 in 9.0 mi Calm Calm - N/A   Mostly Cloudy
6:53 AM 71.1 °F - 68.0 °F 90% 29.96 in 8.0 mi Calm Calm - N/A   Mostly Cloudy
7:07 AM 71.6 °F - 69.8 °F 94% 30.01 in 6.0 mi Calm Calm - N/A   Mostly Cloudy
7:23 AM 71.6 °F - 69.8 °F 94% 30.02 in 9.0 mi Calm Calm - N/A Thunderstorm Mostly Cloudy
7:30 AM 71.6 °F - 69.8 °F 94% 30.02 in 9.0 mi Calm Calm - N/A Thunderstorm Overcast
7:50 AM 71.6 °F - 69.8 °F 94% 30.02 in 8.0 mi Variable 3.5 mph - N/A   Overcast
7:53 AM 72.0 °F - 69.1 °F 91% 29.98 in 8.0 mi Calm Calm - 0.00 in Rain Light Rain
8:04 AM 69.8 °F - 69.8 °F 100% 30.02 in 2.5 mi Calm Calm - 0.01 in Rain Light Rain
8:12 AM 69.8 °F - 68.0 °F 94% 30.02 in 3.0 mi Calm Calm - 0.02 in Rain Light Rain
8:37 AM 69.8 °F - 69.8 °F 100% 30.03 in 7.0 mi Calm Calm - 0.02 in Thunderstorm Overcast
8:53 AM 71.1 °F - 69.1 °F 93% 29.99 in 6.0 mi Calm Calm - 0.02 in   Overcast
9:18 AM 71.6 °F - 69.8 °F 94% 30.04 in 6.0 mi Calm Calm - 0.00 in Rain Light Rain
9:38 AM 71.6 °F - 69.8 °F 94% 30.03 in 2.5 mi Calm Calm - 0.02 in Rain Light Rain
9:40 AM 71.6 °F - 69.8 °F 94% 30.03 in 3.0 mi Calm Calm - 0.02 in Rain Light Rain
9:47 AM 71.6 °F - 69.8 °F 94% 30.03 in 3.0 mi Calm Calm - 0.02 in Rain Light Rain
9:53 AM 72.0 °F - 71.1 °F 97% 29.99 in 3.0 mi Calm Calm - 0.02 in Rain Light Rain
10:08 AM 71.6 °F - 69.8 °F 94% 30.04 in 4.0 mi Calm Calm - N/A   Overcast
10:53 AM 73.0 °F - 71.1 °F 93% 30.00 in 5.0 mi Calm Calm - N/A   Overcast
11:14 AM 73.4 °F - 71.6 °F 94% 30.05 in 5.0 mi Calm Calm - 0.00 in Rain Light Rain
11:45 AM 73.4 °F - 71.6 °F 94% 30.05 in 3.0 mi Calm Calm - 0.01 in Rain Light Rain
11:53 AM 73.0 °F - 71.1 °F 93% 30.00 in 2.5 mi SE 3.5 mph - 0.02 in Rain Rain
11:58 AM 73.4 °F - 71.6 °F 94% 30.04 in 3.0 mi SE 4.6 mph - 0.01 in Rain Light Rain
12:50 PM 73.4 °F - 71.6 °F 94% 30.03 in 9.0 mi Variable 3.5 mph - 0.01 in   Overcast
12:53 PM 75.0 °F - 72.0 °F 90% 29.99 in 9.0 mi Calm Calm - 0.01 in   Overcast
1:17 PM 75.2 °F - 71.6 °F 89% 30.03 in 10.0 mi Calm Calm - N/A   Overcast
1:24 PM 75.2 °F - 71.6 °F 89% 30.03 in 10.0 mi Variable 3.5 mph - N/A   Overcast
1:53 PM 77.0 °F - 71.1 °F 82% 29.99 in 10.0 mi Calm Calm - N/A   Mostly Cloudy
2:53 PM 77.0 °F - 72.0 °F 84% 29.97 in 10.0 mi Calm Calm - 0.00 in Rain Light Rain
3:01 PM 77.0 °F - 71.6 °F 83% 30.01 in 10.0 mi Calm Calm - 0.00 in Rain Light Rain
3:12 PM 78.8 °F - 71.6 °F 78% 30.01 in 10.0 mi Calm Calm - 0.00 in   Overcast
3:27 PM 78.8 °F - 73.4 °F 83% 30.01 in 10.0 mi Calm Calm - 0.00 in   Mostly Cloudy
3:35 PM 78.8 °F - 73.4 °F 83% 30.00 in 10.0 mi Calm Calm - 0.00 in   Mostly Cloudy
3:53 PM 79.0 °F - 73.0 °F 82% 29.95 in 10.0 mi Calm Calm - 0.00 in   Mostly Cloudy
4:09 PM 80.6 °F 85.4 °F 73.4 °F 79% 29.99 in 10.0 mi Calm Calm - N/A   Mostly Cloudy
4:20 PM 78.8 °F - 73.4 °F 83% 29.98 in 10.0 mi Calm Calm - N/A   Mostly Cloudy
4:53 PM 77.0 °F - 71.1 °F 82% 29.94 in 9.0 mi Variable 3.5 mph - 0.00 in Rain Light Rain
5:07 PM 75.2 °F - 71.6 °F 89% 29.98 in 10.0 mi Variable 4.6 mph - 0.00 in Rain Light Rain
5:53 PM 77.0 °F - 73.0 °F 88% 29.94 in 10.0 mi Calm Calm - 0.01 in   Partly Cloudy
6:53 PM 77.0 °F - 73.0 °F 88% 29.94 in 10.0 mi Calm Calm - N/A   Scattered Clouds
7:53 PM 75.9 °F - 73.0 °F 91% 29.92 in 10.0 mi Calm Calm - N/A   Clear
8:53 PM 73.9 °F - 71.1 °F 91% 29.93 in 10.0 mi Calm Calm - N/A   Clear
9:53 PM 75.9 °F - 70.0 °F 82% 29.94 in 10.0 mi SSE 3.5 mph - N/A   Mostly Cloudy
10:53 PM 73.9 °F - 71.1 °F 91% 29.97 in 10.0 mi Calm Calm - N/A   Scattered Clouds
11:53 PM 73.0 °F - 71.1 °F 93% 29.98 in 10.0 mi Calm Calm - 0.00 in   Mostly Cloudy